Deep Creek Georgetown DE USA current weather conditions

sailwx.info

Wind from 276 at 2 knots gusting 2

Air temperature -4.2° C
Dewpoint -8.1° C

Last reported at 2020-Jan-18 10:05 UTC.
Time now 2020-Jan-18 11:10 UTC

Location: N 38°38' W 075°27'.
View on Google Maps.

See reports from other nearby stations

  
Tides and Currents Weather Stations Pressure Air Temp Water Temp Dewpoint Dewpoint Depression Visibility Wind Speed Wind Dir Waves Ship Positions
date/time (UTC)wind fromknots sea level pressurealtimeterstation pressurevisibilityair tempwater tempwave heightnotes
2020-Jan-18 10:05 276 2 gusting 2 -4.2
2020-Jan-18 10:00 272 1 gusting 1 -4.2
2020-Jan-18 09:55 281 1 gusting 1 -4.1
2020-Jan-18 09:50 257 0 gusting 1 -4.1
2020-Jan-18 09:45 241 0 gusting 1 -4.2
2020-Jan-18 09:40 228 0 gusting 1 -4.2
2020-Jan-18 09:35 212 0 gusting 0 -4.3
2020-Jan-18 09:30 236 0 gusting 0 -4.3
2020-Jan-18 09:25 -4.4
2020-Jan-18 09:20 -4.4
2020-Jan-18 09:15 -4.3
2020-Jan-18 09:10 241 0 gusting 0 -4.4
2020-Jan-18 09:05 241 0 gusting 0 -4.4
2020-Jan-18 09:00 240 0 gusting 0 -4.5
2020-Jan-18 08:55 236 0 gusting 0 -4.5
2020-Jan-18 08:50 227 0 gusting 1 -4.6
2020-Jan-18 08:45 205 0 gusting 0 -4.6
2020-Jan-18 08:40 205 0 gusting 0 -4.7
2020-Jan-18 08:35 205 0 gusting 1 -4.7
2020-Jan-18 08:30 205 0 gusting 1 -4.8
2020-Jan-18 08:25 -4.8
2020-Jan-18 08:20 -4.7
2020-Jan-18 08:15 056 0 gusting 1 -4.8
2020-Jan-18 08:10 023 0 gusting 1 -4.8
2020-Jan-18 08:05 071 0 gusting 2 -4.7
2020-Jan-18 08:00 041 1 gusting 2 -4.8
2020-Jan-18 07:55 033 1 gusting 2 -4.9
2020-Jan-18 07:50 024 1 gusting 2 -5.0
2020-Jan-18 07:45 037 1 gusting 2 -5.1
2020-Jan-18 07:40 038 0 gusting 1 -5.1
2020-Jan-18 07:35 016 0 gusting 1 -4.8
2020-Jan-18 07:30 036 1 gusting 2 -4.5
2020-Jan-18 07:25 019 2 gusting 2 -4.5
2020-Jan-18 07:20 024 1 gusting 2 -4.6
2020-Jan-18 07:15 022 1 gusting 2 -4.6
2020-Jan-18 07:10 030 2 gusting 2 -4.5
2020-Jan-18 07:05 030 2 gusting 2 -4.3
2020-Jan-18 07:00 023 2 gusting 3 -4.2
2020-Jan-18 06:55 012 2 gusting 3 -4.2
2020-Jan-18 06:50 015 3 gusting 4 -4.2
2020-Jan-18 06:45 009 3 gusting 4 -4.2
2020-Jan-18 06:40 010 3 gusting 4 -4.2
2020-Jan-18 06:35 008 3 gusting 5 -4.2
2020-Jan-18 06:30 014 3 gusting 4 -4.2
2020-Jan-18 06:25 026 4 gusting 5 -4.1
2020-Jan-18 06:20 018 4 gusting 5 -4.0
2020-Jan-18 06:15 013 5 gusting 6 -4.1
2020-Jan-18 06:10 014 6 gusting 8 -4.2
2020-Jan-18 06:05 024 6 gusting 8 -4.5
2020-Jan-18 06:00 028 6 gusting 7 -4.4
2020-Jan-18 05:55 012 4 gusting 6 -4.4
2020-Jan-18 05:50 009 4 gusting 5 -4.5
2020-Jan-18 05:45 005 4 gusting 5 -4.5
2020-Jan-18 05:40 017 4 gusting 5 -4.5
2020-Jan-18 05:35 017 4 gusting 7 -4.6
2020-Jan-18 05:30 013 4 gusting 6 -4.8
2020-Jan-18 05:25 003 3 gusting 4 -4.9
2020-Jan-18 05:20 358 3 gusting 4 -5.0
2020-Jan-18 05:15 015 3 gusting 4 -5.0
2020-Jan-18 05:10 024 3 gusting 4 -5.2
2020-Jan-18 05:05 026 2 gusting 4 -5.4
2020-Jan-18 05:00 003 3 gusting 4 -5.8
2020-Jan-18 04:55 352 3 gusting 4 -5.3
2020-Jan-18 04:50 006 2 gusting 3 -5.4
2020-Jan-18 04:45 359 3 gusting 4 -5.7
2020-Jan-18 04:40 336 3 gusting 3 -5.3
2020-Jan-18 04:35 359 3 gusting 4 -4.9
2020-Jan-18 04:30 010 2 gusting 3 -4.9
2020-Jan-18 04:25 002 3 gusting 4 -4.7
2020-Jan-18 04:20 010 3 gusting 5 -4.7
2020-Jan-18 04:15 010 4 gusting 4 -4.9
2020-Jan-18 04:10 018 3 gusting 4 -4.7
2020-Jan-18 04:05 014 4 gusting 5 -4.6
2020-Jan-18 04:00 009 3 gusting 4 -4.7
2020-Jan-18 03:55 008 3 gusting 4 -4.9
2020-Jan-18 03:50 011 2 gusting 3 -5.2
2020-Jan-18 03:45 349 3 gusting 4 -5.4
2020-Jan-18 03:40 349 4 gusting 5 -5.2
2020-Jan-18 03:35 004 4 gusting 5 -4.7
2020-Jan-18 03:30 007 3 gusting 4 -5.0
2020-Jan-18 03:25 355 3 gusting 4 -4.9
2020-Jan-18 03:20 012 2 gusting 2 -5.0
2020-Jan-18 03:15 037 2 gusting 3 -5.2
2020-Jan-18 03:10 031 3 gusting 4 -5.1
2020-Jan-18 03:05 028 2 gusting 3 -5.0
2020-Jan-18 03:00 036 2 gusting 3 -4.6
2020-Jan-18 02:55 348 2 gusting 3 -4.5
2020-Jan-18 02:50 327 3 gusting 5 -4.6
2020-Jan-18 02:45 325 3 gusting 4 -4.9
2020-Jan-18 02:40 319 3 gusting 4 -5.6
2020-Jan-18 02:35 332 3 gusting 3 -5.1
2020-Jan-18 02:30 040 1 gusting 2 -5.4
2020-Jan-18 02:25 076 0 gusting 1 -4.8
2020-Jan-18 02:20 290 1 gusting 2 -4.4
2020-Jan-18 02:15 296 2 gusting 2 -4.2
2020-Jan-18 02:10 309 2 gusting 2 -4.3
2020-Jan-18 02:05 301 1 gusting 2 -4.2
2020-Jan-18 02:00 303 1 gusting 2 -4.1
2020-Jan-18 01:55 291 2 gusting 3 -3.9
2020-Jan-18 01:50 312 3 gusting 4 -3.8
2020-Jan-18 01:45 309 4 gusting 5 -3.8
2020-Jan-18 01:40 304 4 gusting 6 -3.8
2020-Jan-18 01:35 308 2 gusting 4 -3.8
2020-Jan-18 01:30 307 2 gusting 2 -3.7
2020-Jan-18 01:25 314 2 gusting 3 -3.6
2020-Jan-18 01:20 300 3 gusting 4 -3.8
2020-Jan-18 01:15 311 3 gusting 5 -3.9
2020-Jan-18 01:10 316 4 gusting 5 -3.7
2020-Jan-18 01:05 307 3 gusting 5 -3.4
2020-Jan-18 01:00 309 2 gusting 4 -3.5
2020-Jan-18 00:55 313 3 gusting 5 -3.2
2020-Jan-18 00:50 306 4 gusting 5 -3.4
2020-Jan-18 00:45 316 4 gusting 6 -3.4
2020-Jan-18 00:40 307 4 gusting 6 -3.4
2020-Jan-18 00:35 300 4 gusting 5 -3.4
2020-Jan-18 00:30 307 4 gusting 5 -3.3
2020-Jan-18 00:25 293 4 gusting 5 -3.6
2020-Jan-18 00:20 284 4 gusting 5 -3.4
2020-Jan-18 00:15 292 4 gusting 6 -3.4
2020-Jan-18 00:10 289 4 gusting 5 -3.0
2020-Jan-18 00:05 301 3 gusting 4 -2.9
2020-Jan-18 00:00 308 4 gusting 6 -3.0
2020-Jan-17 23:55 294 5 gusting 6 -3.1
2020-Jan-17 23:50 293 4 gusting 6 -2.9
2020-Jan-17 23:45 310 3 gusting 5 -3.0
2020-Jan-17 23:40 310 3 gusting 4 -2.8
2020-Jan-17 23:35 310 3 gusting 5 -2.8
2020-Jan-17 23:30 312 4 gusting 6 -2.7
2020-Jan-17 23:25 319 4 gusting 6 -2.6
2020-Jan-17 23:20 318 5 gusting 7 -2.6
2020-Jan-17 23:15 318 5 gusting 6 -2.5
2020-Jan-17 23:10 317 4 gusting 6 -2.4
2020-Jan-17 23:05 313 4 gusting 6 -2.4
2020-Jan-17 23:00 321 5 gusting 6 -2.3
2020-Jan-17 22:55 319 5 gusting 7 -2.1
2020-Jan-17 22:50 311 5 gusting 7 -1.9
2020-Jan-17 22:45 316 6 gusting 9 -1.9
2020-Jan-17 22:40 324 5 gusting 8 -1.8
2020-Jan-17 22:35 311 5 gusting 6 -1.7
2020-Jan-17 22:30 310 5 gusting 6 -1.6
2020-Jan-17 22:25 317 5 gusting 7 -1.5
2020-Jan-17 22:20 313 5 gusting 7 -1.3
2020-Jan-17 22:15 320 6 gusting 9 -1.0
2020-Jan-17 22:10 329 8 gusting 10 -0.8
2020-Jan-17 22:05 321 7 gusting 9 -0.8
2020-Jan-17 22:00 325 7 gusting 9 -0.7
2020-Jan-17 21:55 326 8 gusting 12 -0.4
2020-Jan-17 21:50 328 8 gusting 11 -0.3
2020-Jan-17 21:45 326 10 gusting 11 -0.2
2020-Jan-17 21:40 318 8 gusting 11 -0.1
2020-Jan-17 21:35 313 8 gusting 11 0.1
2020-Jan-17 21:30 311 7 gusting 11 0.2
2020-Jan-17 21:25 311 7 gusting 10 0.3
2020-Jan-17 21:20 321 7 gusting 11 0.4
2020-Jan-17 21:15 332 8 gusting 11 0.5
2020-Jan-17 21:10 328 9 gusting 11 0.6
2020-Jan-17 21:05 335 7 gusting 11 0.7
2020-Jan-17 21:00 335 10 gusting 13 0.7
2020-Jan-17 20:55 324 10 gusting 14 0.9
2020-Jan-17 20:50 333 8 gusting 10 0.9
2020-Jan-17 20:45 343 9 gusting 12 0.9
2020-Jan-17 20:40 335 9 gusting 14 0.9
2020-Jan-17 20:35 330 9 gusting 15 0.9
2020-Jan-17 20:30 336 10 gusting 15 1.1
2020-Jan-17 20:25 338 9 gusting 13 1.2
2020-Jan-17 20:20 323 8 gusting 12 1.0
2020-Jan-17 20:15 344 9 gusting 12 1.0
2020-Jan-17 20:10 339 10 gusting 15 1.3
2020-Jan-17 20:05 317 9 gusting 13 1.2
2020-Jan-17 20:00 326 9 gusting 13 1.4
2020-Jan-17 19:55 322 11 gusting 15 1.2
2020-Jan-17 19:50 314 11 gusting 15 1.3
2020-Jan-17 19:45 325 10 gusting 15 1.2
2020-Jan-17 19:40 323 12 gusting 16 1.1
2020-Jan-17 19:35 331 12 gusting 17 1.2
2020-Jan-17 19:30 342 11 gusting 17 1.2
2020-Jan-17 19:25 340 11 gusting 18 1.3
2020-Jan-17 19:20 344 10 gusting 16 1.1
2020-Jan-17 19:15 340 10 gusting 14 1.2
2020-Jan-17 19:10 333 11 gusting 15 1.2
2020-Jan-17 19:05 332 9 gusting 16 1.2
2020-Jan-17 19:00 329 11 gusting 17 1.1
2020-Jan-17 18:55 338 12 gusting 18 1.1
2020-Jan-17 18:50 319 13 gusting 17 1.0
2020-Jan-17 18:45 336 13 gusting 18 1.0
2020-Jan-17 18:40 329 12 gusting 18 1.1
2020-Jan-17 18:35 336 13 gusting 17 1.1
2020-Jan-17 18:30 329 15 gusting 20 1.1
2020-Jan-17 18:25 345 12 gusting 17 1.2
2020-Jan-17 18:20 357 12 gusting 17 1.1
2020-Jan-17 18:15 347 13 gusting 17 1.2
2020-Jan-17 18:10 354 13 gusting 21 1.1
2020-Jan-17 18:05 345 13 gusting 18 1.0
2020-Jan-17 18:00 346 13 gusting 19 1.2
2020-Jan-17 17:55 351 12 gusting 19 1.4
2020-Jan-17 17:50 357 13 gusting 18 1.1
2020-Jan-17 17:45 002 12 gusting 20 1.3
2020-Jan-17 17:40 349 13 gusting 19 1.2
2020-Jan-17 17:35 360 13 gusting 19 0.9
2020-Jan-17 17:30 356 13 gusting 21 1.2
2020-Jan-17 17:25 336 14 gusting 19 1.1
2020-Jan-17 17:20 351 13 gusting 17 1.1
2020-Jan-17 17:15 347 12 gusting 15 1.2
2020-Jan-17 17:10 347 11 gusting 17 1.1
2020-Jan-17 17:05 351 14 gusting 20 1.0
2020-Jan-17 17:00 348 14 gusting 21 1.0
2020-Jan-17 16:55 331 14 gusting 19 0.9
2020-Jan-17 16:50 314 12 gusting 17 1.1
2020-Jan-17 16:45 315 12 gusting 17 0.9
2020-Jan-17 16:40 314 14 gusting 19 0.8
2020-Jan-17 16:35 342 12 gusting 17 0.8
2020-Jan-17 16:30 329 14 gusting 20 0.8
2020-Jan-17 16:25 333 14 gusting 19 0.6
2020-Jan-17 16:20 331 15 gusting 20 0.7
2020-Jan-17 16:15 327 13 gusting 18 1.1
2020-Jan-17 16:10 338 11 gusting 17 0.9
2020-Jan-17 16:05 350 11 gusting 16 0.8
2020-Jan-17 16:00 321 12 gusting 17 0.7
2020-Jan-17 15:55 345 12 gusting 20 0.4
2020-Jan-17 15:50 351 15 gusting 20 0.3
2020-Jan-17 15:45 349 12 gusting 17 0.4
2020-Jan-17 15:40 341 15 gusting 20 0.3
2020-Jan-17 15:35 336 15 gusting 22 0.2
2020-Jan-17 15:30 329 17 gusting 27 0.1
2020-Jan-17 15:25 329 16 gusting 23 0.0
2020-Jan-17 15:20 332 13 gusting 18 0.0
2020-Jan-17 15:15 332 14 gusting 19 -0.0
2020-Jan-17 15:10 328 14 gusting 20 -0.2
2020-Jan-17 15:05 330 17 gusting 22 -0.3
2020-Jan-17 15:00 329 19 gusting 26 -0.4
2020-Jan-17 14:55 327 17 gusting 23 -0.5
2020-Jan-17 14:50 330 18 gusting 22 -0.5
2020-Jan-17 14:45 330 17 gusting 24 -0.5
2020-Jan-17 14:40 317 16 gusting 21 -0.4
2020-Jan-17 14:35 322 16 gusting 23 -0.6
2020-Jan-17 14:30 324 15 gusting 19 -0.7
2020-Jan-17 14:25 327 16 gusting 23 -0.7
2020-Jan-17 14:20 327 17 gusting 24 -0.7
2020-Jan-17 14:15 323 15 gusting 23 -0.7
2020-Jan-17 14:10 333 15 gusting 22 -0.9
2020-Jan-17 14:05 334 16 gusting 21 -0.9
2020-Jan-17 14:00 327 17 gusting 24 -0.9
2020-Jan-17 13:55 321 15 gusting 23 -0.9
2020-Jan-17 13:50 330 13 gusting 22 -1.0
2020-Jan-17 13:45 340 15 gusting 26 -1.0
2020-Jan-17 13:40 331 13 gusting 21 -1.1
2020-Jan-17 13:35 325 17 gusting 26 -1.1
2020-Jan-17 13:30 331 14 gusting 22 -1.1
2020-Jan-17 13:25 329 13 gusting 21 -1.2
2020-Jan-17 13:20 328 14 gusting 22 -1.2
2020-Jan-17 13:15 331 12 gusting 19 -1.2
2020-Jan-17 13:10 327 16 gusting 24 -1.2
2020-Jan-17 13:05 326 12 gusting 17 -1.2
2020-Jan-17 13:00 327 15 gusting 20 -1.3
2020-Jan-17 12:55 320 9 gusting 14 -1.4
2020-Jan-17 12:50 323 9 gusting 15 -1.3
2020-Jan-17 12:45 325 10 gusting 17 -1.4
2020-Jan-17 12:40 324 12 gusting 20 -1.3
2020-Jan-17 12:35 322 12 gusting 17 -1.3
2020-Jan-17 12:30 318 13 gusting 21 -1.2
2020-Jan-17 12:25 318 14 gusting 20 -1.2
2020-Jan-17 12:20 322 16 gusting 24 -1.1
2020-Jan-17 12:15 326 14 gusting 22 -1.1
2020-Jan-17 12:10 329 16 gusting 23 -1.0
2020-Jan-17 12:05 320 15 gusting 21 -1.0
2020-Jan-17 12:00 325 14 gusting 21 -1.0
2020-Jan-17 11:55 326 13 gusting 18 -0.8
2020-Jan-17 11:50 330 13 gusting 19 -0.7
2020-Jan-17 11:45 329 14 gusting 21 -0.6
2020-Jan-17 11:40 328 12 gusting 19 -0.5
2020-Jan-17 11:35 336 10 gusting 15 -0.6
2020-Jan-17 11:30 338 5 gusting 8 -0.6
2020-Jan-17 11:25 321 7 gusting 10 -0.4
2020-Jan-17 11:20 319 8 gusting 11 -0.3
2020-Jan-17 11:15 318 8 gusting 10 -0.1
2020-Jan-17 11:10 313 10 gusting 13 -0.1
2020-Jan-17 11:05 311 9 gusting 13 -0.0
2020-Jan-17 11:00 309 10 gusting 16 0.0
2020-Jan-17 10:55 312 9 gusting 16 0.1
2020-Jan-17 10:50 314 11 gusting 16 0.2
2020-Jan-17 10:45 314 12 gusting 17 0.2
2020-Jan-17 10:40 310 12 gusting 18 0.2
2020-Jan-17 10:35 309 12 gusting 16 0.2
2020-Jan-17 10:30 315 12 gusting 17 0.2
2020-Jan-17 10:25 320 12 gusting 19 0.1
2020-Jan-17 10:20 321 14 gusting 18 0.0
2020-Jan-17 10:15 321 10 gusting 17 -0.1
2020-Jan-17 10:10 317 10 gusting 13 -0.1
2020-Jan-17 10:05 324 9 gusting 13 0.0
2020-Jan-17 10:00 312 10 gusting 17 0.2
2020-Jan-17 09:55 309 10 gusting 16 0.2
2020-Jan-17 09:50 305 8 gusting 11 0.2
2020-Jan-17 09:45 305 7 gusting 11 0.2
2020-Jan-17 09:40 307 6 gusting 9 0.2
2020-Jan-17 09:35 313 7 gusting 11 0.1
2020-Jan-17 09:30 304 7 gusting 10 0.1
2020-Jan-17 09:25 298 7 gusting 10 0.2
2020-Jan-17 09:20 300 8 gusting 12 0.3
2020-Jan-17 09:15 303 8 gusting 14 0.4
2020-Jan-17 09:10 301 9 gusting 12 0.5
2020-Jan-17 09:05 305 10 gusting 15 0.5
2020-Jan-17 09:00 304 9 gusting 14 0.5
2020-Jan-17 08:55 312 7 gusting 10 0.5
2020-Jan-17 08:50 316 7 gusting 10 0.6
2020-Jan-17 08:45 309 7 gusting 11 0.5
2020-Jan-17 08:40 307 7 gusting 11 0.5
2020-Jan-17 08:35 306 8 gusting 12 0.5
2020-Jan-17 08:30 310 7 gusting 11 0.5
2020-Jan-17 08:25 308 8 gusting 12 0.5
2020-Jan-17 08:20 310 8 gusting 12 0.6
2020-Jan-17 08:15 311 10 gusting 16 0.8
2020-Jan-17 08:10 312 11 gusting 17 0.9
2020-Jan-17 08:05 305 12 gusting 17 0.9
2020-Jan-17 08:00 307 10 gusting 15 0.9
2020-Jan-17 07:55 303 9 gusting 12 1.0
2020-Jan-17 07:50 304 9 gusting 14 1.0
2020-Jan-17 07:45 307 9 gusting 14 1.1
2020-Jan-17 07:40 302 9 gusting 13 1.2
2020-Jan-17 07:35 310 9 gusting 13 1.3
2020-Jan-17 07:30 308 8 gusting 12 1.3
2020-Jan-17 07:25 305 8 gusting 12 1.3
2020-Jan-17 07:20 302 8 gusting 11 1.3
2020-Jan-17 07:15 302 7 gusting 10 1.2
2020-Jan-17 07:10 296 7 gusting 11 1.1
2020-Jan-17 07:05 298 6 gusting 9 1.2
2020-Jan-17 07:00 301 5 gusting 9 1.3
2020-Jan-17 06:55 306 6 gusting 10 1.4
2020-Jan-17 06:50 307 8 gusting 13 1.5
2020-Jan-17 06:45 304 8 gusting 11 1.5
2020-Jan-17 06:40 302 9 gusting 17 1.6
2020-Jan-17 06:35 301 8 gusting 15 1.7
2020-Jan-17 06:30 305 9 gusting 13 1.8
2020-Jan-17 06:25 303 10 gusting 13 1.8
2020-Jan-17 06:20 303 9 gusting 14 1.7
2020-Jan-17 06:15 306 10 gusting 18 1.8
2020-Jan-17 06:10 300 10 gusting 14 1.9
2020-Jan-17 06:05 304 12 gusting 18 2.0
2020-Jan-17 06:00 300 13 gusting 19 2.1
2020-Jan-17 05:55 303 9 gusting 17 2.0
2020-Jan-17 05:50 300 12 gusting 22 2.1
2020-Jan-17 05:45 307 11 gusting 16 2.2
2020-Jan-17 05:40 304 14 gusting 20 2.2
2020-Jan-17 05:35 302 12 gusting 19 2.2
2020-Jan-17 05:30 305 14 gusting 19 2.3
2020-Jan-17 05:25 303 13 gusting 18 2.2
2020-Jan-17 05:20 304 13 gusting 18 2.3
2020-Jan-17 05:15 300 14 gusting 21 2.4
2020-Jan-17 05:10 297 14 gusting 19 2.3
2020-Jan-17 05:05 301 12 gusting 18 2.2
2020-Jan-17 05:00 300 12 gusting 18 2.3
2020-Jan-17 04:55 296 12 gusting 16 2.5
2020-Jan-17 04:50 300 12 gusting 17 2.4
2020-Jan-17 04:45 297 14 gusting 18 2.4
2020-Jan-17 04:40 294 11 gusting 18 2.5
2020-Jan-17 04:35 296 12 gusting 18 2.5
2020-Jan-17 04:30 299 12 gusting 19 2.6
2020-Jan-17 04:25 298 15 gusting 22 2.7
2020-Jan-17 04:20 301 13 gusting 18 2.6
2020-Jan-17 04:15 301 12 gusting 19 2.6
2020-Jan-17 04:10 294 13 gusting 21 2.6
2020-Jan-17 04:05 300 12 gusting 20 2.6
2020-Jan-17 04:00 297 12 gusting 23 2.7
2020-Jan-17 03:55 298 13 gusting 18 2.8
2020-Jan-17 03:50 295 13 gusting 19 2.8
2020-Jan-17 03:45 297 14 gusting 20 2.9
2020-Jan-17 03:40 295 12 gusting 17 2.9
2020-Jan-17 03:35 301 13 gusting 19 3.0
2020-Jan-17 03:30 302 13 gusting 20 3.0
2020-Jan-17 03:25 300 13 gusting 20 3.0
2020-Jan-17 03:20 296 12 gusting 17 3.1
2020-Jan-17 03:15 298 12 gusting 17 3.2
2020-Jan-17 03:10 298 16 gusting 23 3.3
2020-Jan-17 03:05 303 13 gusting 20 3.1
2020-Jan-17 03:00 298 12 gusting 17 3.2
2020-Jan-17 02:55 301 13 gusting 18 3.3
2020-Jan-17 02:50 300 13 gusting 22 3.3
2020-Jan-17 02:45 296 14 gusting 21 3.3
2020-Jan-17 02:40 299 11 gusting 17 3.3
2020-Jan-17 02:35 295 11 gusting 15 3.4
2020-Jan-17 02:30 298 12 gusting 16 3.5
2020-Jan-17 02:25 303 12 gusting 21 3.7
2020-Jan-17 02:20 295 12 gusting 18 3.8
2020-Jan-17 02:15 304 12 gusting 18 3.8
2020-Jan-17 02:10 300 13 gusting 22 3.9
2020-Jan-17 02:05 296 12 gusting 18 3.8
2020-Jan-17 02:00 304 12 gusting 20 3.9
2020-Jan-17 01:55 308 13 gusting 21 4.0
2020-Jan-17 01:50 311 16 gusting 25 4.1
2020-Jan-17 01:45 300 16 gusting 23 4.2
2020-Jan-17 01:40 305 15 gusting 23 4.1
2020-Jan-17 01:35 306 14 gusting 22 4.3
2020-Jan-17 01:30 307 18 gusting 28 4.3
2020-Jan-17 01:25 307 17 gusting 26 4.5
2020-Jan-17 01:20 304 16 gusting 23 4.7
2020-Jan-17 01:15 304 17 gusting 27 4.7
2020-Jan-17 01:10 303 15 gusting 25 4.8
2020-Jan-17 01:05 303 13 gusting 20 4.9
2020-Jan-17 01:00 298 14 gusting 23 5.0
2020-Jan-17 00:55 294 13 gusting 20 5.1
2020-Jan-17 00:50 304 14 gusting 19 5.1
2020-Jan-17 00:45 302 14 gusting 20 5.3
2020-Jan-17 00:40 298 12 gusting 17 5.4
2020-Jan-17 00:35 304 16 gusting 25 5.6
2020-Jan-17 00:30 299 15 gusting 21 5.7
2020-Jan-17 00:25 300 16 gusting 22 5.9
2020-Jan-17 00:20 306 17 gusting 26 6.0
2020-Jan-17 00:15 305 16 gusting 24 6.1
2020-Jan-17 00:10 311 20 gusting 31 6.1
2020-Jan-17 00:05 307 20 gusting 28 6.3
2020-Jan-17 00:00 309 21 gusting 32 6.5
2020-Jan-16 23:55 311 19 gusting 28 6.6
2020-Jan-16 23:50 319 20 gusting 28 6.9
2020-Jan-16 23:45 306 18 gusting 27 7.1
2020-Jan-16 23:40 302 15 gusting 25 7.1
2020-Jan-16 23:35 305 17 gusting 26 7.1
2020-Jan-16 23:30 304 9 gusting 15 6.8
2020-Jan-16 23:25 297 9 gusting 15 6.7
2020-Jan-16 23:20 298 9 gusting 12 6.8
2020-Jan-16 23:15 297 9 gusting 15 7.0
2020-Jan-16 23:10 298 12 gusting 17 7.0
2020-Jan-16 23:05 297 11 gusting 15 7.0
2020-Jan-16 23:00 294 13 gusting 19 7.0
2020-Jan-16 22:55 292 13 gusting 20 6.8
2020-Jan-16 22:50 297 9 gusting 12 6.8
2020-Jan-16 22:45 291 11 gusting 17 6.8
2020-Jan-16 22:40 292 10 gusting 16 6.9
2020-Jan-16 22:35 293 11 gusting 18 7.0
2020-Jan-16 22:30 297 13 gusting 19 7.2
2020-Jan-16 22:25 299 12 gusting 20 7.2
2020-Jan-16 22:20 293 12 gusting 19 7.3
2020-Jan-16 22:15 294 13 gusting 19 7.3
2020-Jan-16 22:10 296 13 gusting 20 7.4
2020-Jan-16 22:05 287 13 gusting 18 7.4
2020-Jan-16 22:00 286 15 gusting 22 7.4
2020-Jan-16 21:55 283 15 gusting 20 7.6
2020-Jan-16 21:50 285 14 gusting 23 7.7
2020-Jan-16 21:45 294 16 gusting 21 8.0
2020-Jan-16 21:40 294 17 gusting 24 8.1
2020-Jan-16 21:35 293 16 gusting 25 8.2
2020-Jan-16 21:30 298 15 gusting 22 8.3
2020-Jan-16 21:25 290 16 gusting 25 8.3
2020-Jan-16 21:20 289 17 gusting 25 8.4
2020-Jan-16 21:15 294 18 gusting 26 8.5
2020-Jan-16 21:10 296 18 gusting 27 8.7
2020-Jan-16 21:05 299 19 gusting 30 8.8
2020-Jan-16 21:00 300 20 gusting 29 8.9
2020-Jan-16 20:55 303 18 gusting 25 9.1
2020-Jan-16 20:50 295 18 gusting 31 9.2
2020-Jan-16 20:45 297 20 gusting 28 9.3
2020-Jan-16 20:40 288 23 gusting 31 9.4
2020-Jan-16 20:35 288 19 gusting 28 9.5
2020-Jan-16 20:30 294 19 gusting 28 9.6
2020-Jan-16 20:25 291 21 gusting 29 9.8
2020-Jan-16 20:20 297 20 gusting 28 9.9
2020-Jan-16 20:15 296 22 gusting 30 10.1
2020-Jan-16 20:10 295 22 gusting 31 10.2
2020-Jan-16 20:05 293 21 gusting 34 10.4
2020-Jan-16 20:00 293 19 gusting 30 10.6
2020-Jan-16 19:55 291 22 gusting 32 10.6
2020-Jan-16 19:50 295 19 gusting 28 10.8
2020-Jan-16 19:45 294 20 gusting 28 10.8
2020-Jan-16 19:40 299 19 gusting 28 10.9
2020-Jan-16 19:35 298 20 gusting 30 10.9
2020-Jan-16 19:30 296 20 gusting 32 11.0
2020-Jan-16 19:25 297 20 gusting 29 11.1
2020-Jan-16 19:20 302 18 gusting 26 11.2
2020-Jan-16 19:15 302 17 gusting 26 11.2
2020-Jan-16 19:10 298 16 gusting 25 11.3
2020-Jan-16 19:05 295 16 gusting 28 11.3
2020-Jan-16 19:00 294 15 gusting 22 11.3
2020-Jan-16 18:55 301 14 gusting 21 11.5
2020-Jan-16 18:50 294 14 gusting 20 11.5
2020-Jan-16 18:45 299 16 gusting 25 11.5
2020-Jan-16 18:40 287 19 gusting 27 11.5
2020-Jan-16 18:35 294 17 gusting 25 11.5
2020-Jan-16 18:30 295 21 gusting 33 11.5
2020-Jan-16 18:25 298 21 gusting 28 11.5
2020-Jan-16 18:20 287 22 gusting 30 11.6
2020-Jan-16 18:15 286 21 gusting 30 11.7
2020-Jan-16 18:10 287 22 gusting 30 11.6
2020-Jan-16 18:05 292 20 gusting 29 11.7
2020-Jan-16 18:00 300 19 gusting 29 11.6
2020-Jan-16 17:55 297 16 gusting 25 11.7
2020-Jan-16 17:50 308 13 gusting 23 11.8
2020-Jan-16 17:45 308 16 gusting 22 11.6
2020-Jan-16 17:40 297 13 gusting 18 11.4
2020-Jan-16 17:35 301 14 gusting 24 10.8
2020-Jan-16 17:30 302 14 gusting 21 10.8
2020-Jan-16 17:25 300 15 gusting 22 11.0
2020-Jan-16 17:20 291 19 gusting 27 11.0
2020-Jan-16 17:15 289 20 gusting 30 11.0
2020-Jan-16 17:10 292 19 gusting 28 11.2
2020-Jan-16 17:05 294 21 gusting 29 11.5
2020-Jan-16 17:00 298 20 gusting 30 11.5
2020-Jan-16 16:55 299 20 gusting 28 11.0
2020-Jan-16 16:50 294 16 gusting 26 10.8
2020-Jan-16 16:45 297 13 gusting 22 10.8
2020-Jan-16 16:40 292 15 gusting 20 10.9
2020-Jan-16 16:35 286 15 gusting 25 10.9
2020-Jan-16 16:30 285 18 gusting 26 11.0
2020-Jan-16 16:25 290 16 gusting 22 11.1
2020-Jan-16 16:20 287 17 gusting 25 11.2
2020-Jan-16 16:15 294 18 gusting 28 11.2
2020-Jan-16 16:10 291 23 gusting 36 11.3
2020-Jan-16 16:05 293 18 gusting 26 11.4
2020-Jan-16 16:00 293 19 gusting 26 11.5
2020-Jan-16 15:55 290 14 gusting 22 11.5
2020-Jan-16 15:50 288 16 gusting 24 11.6
2020-Jan-16 15:45 294 15 gusting 22 11.8
2020-Jan-16 15:40 292 13 gusting 21 12.0
2020-Jan-16 15:35 296 14 gusting 22 12.1
2020-Jan-16 15:30 297 13 gusting 21 12.1
2020-Jan-16 15:25 300 14 gusting 23 12.2
2020-Jan-16 15:20 295 13 gusting 19 12.4
2020-Jan-16 15:15 291 16 gusting 24 12.5
2020-Jan-16 15:10 302 17 gusting 27 12.5
2020-Jan-16 15:05 292 15 gusting 23 12.6
2020-Jan-16 15:00 298 18 gusting 26 12.7
2020-Jan-16 14:55 293 16 gusting 25 12.7
2020-Jan-16 14:50 291 18 gusting 26 12.7
2020-Jan-16 14:45 289 19 gusting 27 12.7
2020-Jan-16 14:40 290 19 gusting 30 12.7
2020-Jan-16 14:35 288 16 gusting 22 12.7
2020-Jan-16 14:30 292 17 gusting 23 12.8
2020-Jan-16 14:25 295 14 gusting 19 12.7
2020-Jan-16 14:20 285 18 gusting 26 12.8
2020-Jan-16 14:15 284 17 gusting 25 12.7
2020-Jan-16 14:10 275 14 gusting 19 12.7
2020-Jan-16 14:05 281 11 gusting 17 12.7
2020-Jan-16 14:00 282 13 gusting 17 12.8
2020-Jan-16 13:55 289 14 gusting 21 13.0
2020-Jan-16 13:50 293 15 gusting 21 13.2
2020-Jan-16 13:45 292 16 gusting 23 12.9
2020-Jan-16 13:40 294 14 gusting 21 12.6
2020-Jan-16 13:35 295 14 gusting 21 12.5
2020-Jan-16 13:30 295 15 gusting 23 12.2
2020-Jan-16 13:25 292 14 gusting 20 12.0
2020-Jan-16 13:20 293 13 gusting 18 11.8
2020-Jan-16 13:15 293 11 gusting 17 11.6
2020-Jan-16 13:10 292 11 gusting 15 11.6
2020-Jan-16 13:05 290 10 gusting 15 11.5
2020-Jan-16 13:00 288 11 gusting 17 11.5
2020-Jan-16 12:55 289 11 gusting 16 11.5
2020-Jan-16 12:50 288 10 gusting 14 11.5
2020-Jan-16 12:45 290 11 gusting 17 11.3
2020-Jan-16 12:40 284 10 gusting 14 11.2
2020-Jan-16 12:35 275 11 gusting 14 11.0
2020-Jan-16 12:30 276 9 gusting 12 10.9
2020-Jan-16 12:25 277 9 gusting 15 10.9
2020-Jan-16 12:20 271 9 gusting 13 10.8
2020-Jan-16 12:15 272 10 gusting 13 10.8
2020-Jan-16 12:10 269 10 gusting 14 10.7
2020-Jan-16 12:05 268 9 gusting 12 10.8
2020-Jan-16 12:00 264 9 gusting 13 10.8
2020-Jan-16 11:55 261 9 gusting 13 10.9
2020-Jan-16 11:50 261 9 gusting 12 10.8
2020-Jan-16 11:45 264 8 gusting 12 10.9
2020-Jan-16 11:40 262 9 gusting 12 10.9
2020-Jan-16 11:35 272 9 gusting 14 11.0
2020-Jan-16 11:30 273 10 gusting 13 11.0
2020-Jan-16 11:25 271 8 gusting 12 11.1
2020-Jan-16 11:20 272 9 gusting 13 11.1
2020-Jan-16 11:15 281 10 gusting 14 11.2
2020-Jan-16 11:10 268 9 gusting 14 11.4
2020-Jan-16 11:05 236 8 gusting 12 11.4
2020-Jan-16 11:00 232 9 gusting 12 11.5